This is the latest recevied weather packets stored in our database for station/object K3SV. If no packets are shown the sender has not sent any weather packets the latest 10 day(s).
| Time | Temp. | Humidity | Pressure | Rain* | Wind** | Luminosity | Snow |
|---|---|---|---|---|---|---|---|
| 1777938531 | 24.44° C | 62% | 1014.2 hPa | 0 mm | - | 13 W/m² | - |
| 1777938229 | 24.44° C | 62% | 1014.1 hPa | 0 mm | - | 15 W/m² | - |
| 1777937926 | 25° C | 61% | 1014.2 hPa | 0 mm | - | 20 W/m² | - |
| 1777937621 | 25° C | 61% | 1014.5 hPa | 0 mm | - | 23 W/m² | - |
| 1777937318 | 25° C | 60% | 1014 hPa | 0 mm | - | 27 W/m² | - |
| 1777937016 | 25° C | 60% | 1014.2 hPa | 0 mm | - | 29 W/m² | - |
| 1777936712 | 25.56° C | 59% | 1014 hPa | 0 mm | - | 32 W/m² | - |
| 1777936409 | 25.56° C | 60% | 1014 hPa | 0 mm | - | 35 W/m² | - |
| 1777936105 | 25.56° C | 59% | 1014.2 hPa | 0 mm | - | 43 W/m² | - |
| 1777935803 | 25.56° C | 59% | 1014.2 hPa | 0 mm | - | 44 W/m² | - |
| 1777935501 | 25.56° C | 59% | 1014 hPa | 0 mm | - | 44 W/m² | - |
| 1777935197 | 25.56° C | 58% | 1014.1 hPa | 0 mm | - | 46 W/m² | - |
| 1777934895 | 26.11° C | 57% | 1014.1 hPa | 0 mm | - | 51 W/m² | - |
| 1777934592 | 26.11° C | 56% | 1013.9 hPa | 0 mm | - | 55 W/m² | - |
| 1777934288 | 27.22° C | 53% | 1013.9 hPa | 0 mm | - | 67 W/m² | - |
| 1777933984 | 27.22° C | 51% | 1014.1 hPa | 0 mm | - | 166 W/m² | - |
| 1777933681 | 27.78° C | 50% | 1014.1 hPa | 0 mm | - | 209 W/m² | - |
| 1777933378 | 27.78° C | 50% | 1014 hPa | 0 mm | - | 218 W/m² | - |
| 1777933075 | 27.78° C | 50% | 1014 hPa | 0 mm | - | 233 W/m² | - |
| 1777932772 | 27.78° C | 50% | 1014 hPa | 0 mm | - | 217 W/m² | - |
| 1777932469 | 27.22° C | 51% | 1014 hPa | 0 mm | - | 89 W/m² | - |
| 1777932166 | 27.22° C | 50% | 1014.1 hPa | 0 mm | - | 97 W/m² | - |
| 1777931863 | 27.78° C | 49% | 1014 hPa | 0 mm | - | 187 W/m² | - |
| 1777931560 | 27.78° C | 49% | 1014.1 hPa | 0 mm | - | 312 W/m² | - |
| 1777931256 | 27.78° C | 48% | 1014 hPa | 0 mm | - | 317 W/m² | - |
* Rain latest hour (hover to see other rain measurements)
** Current wind speed in m/s (hover to see current wind gust speed)